Regional Weather Roundup
Issued by NWS Newport/Morehead, NC

Current Version | Previous Version | Graphics & Text | Print | Product List | Glossary On
Versions: 1 2 3 4 5 6 7 8 9 10 11 12 13 14 15 16 17 18 19 20 21 22 23 24 25 26 27 28 29 30 31 32 33 34 35 36 37 38 39 40 41 42 43 44 45 46 47 48 49 50
000 ASUS42 KMHX 192025 RWRMHX WEATHER ROUNDUP FOR EASTERN NORTH CAROLINA NATIONAL WEATHER SERVICE NEWPORT/MOREHEAD CITY NC 300 PM EST THU JAN 19 2017 NOTE: "FAIR" INDICATES FEW OR NO CLOUDS BELOW 12,000 FEET WITH NO SIGNIFICANT WEATHER AND/OR OBSTRUCTIONS TO VISIBILITY NCZ015>017-031-032-045>047-102-103-192100- NORTH COAST CITY SKY/WX TMP DP RH WIND PRES REMARKS EDENTON SUNNY 55 44 66 CALM 30.02F ELIZABETH CITY SUNNY 57 40 52 CALM 30.02F KITTY HAWK NOT AVBL MANTEO SUNNY 51 41 69 CALM 30.03F $$ NCZ045>047-081-094-103-104-192100- CENTRAL COAST CITY SKY/WX TMP DP RH WIND PRES REMARKS FRISCO SUNNY 54 44 69 VRB6 30.04S HAZE $$ NCZ095-097-098-100-101-192100- SOUTHERN COAST CITY SKY/WX TMP DP RH WIND PRES REMARKS BEAUFORT SUNNY 59 44 57 E8 30.02F CEDAR ISLAND NOT AVBL JACKSONVILLE SUNNY 61 44 53 CALM 30.02F PINEY ISLAND CLEAR N/A N/A N/A E7 30.03 WILMINGTON SUNNY 59 42 53 SE7 30.02F $$ NCZ011>013-027>030-043-044-078>080-089-090>093-098-192100- COASTAL PLAIN CITY SKY/WX TMP DP RH WIND PRES REMARKS AHOSKIE N/A 56 40 54 NW3 30.02F CLINTON SUNNY 62 44 51 W3 30.02F ELIZABETHTOWN SUNNY 64 42 44 CALM 30.01F GOLDSBORO SUNNY 61 41 46 CALM 30.00F GREENVILLE SUNNY 59 41 51 CALM 30.03F HAVELOCK SUNNY 58 43 57 E6 30.03F KENANSVILLE SUNNY 61 43 51 CALM 30.02F KINSTON SUNNY 61 41 48 W5 30.03F NEW BERN SUNNY 60 43 53 E5 30.03F RICHLANDS SUNNY 61 44 53 VRB3 30.02F ROCKY MOUNT SUNNY 59 42 53 W5 30.03S WASHINGTON SUNNY 60 42 52 CALM N/A WHITEVILLE SUNNY 65 42 43 SW3 30.00F $$ AMZ130-135-150-152-154-156-158-170-250-252-270-ANZ085-086-088-633-658-670-192100- MARINE OBSERVATIONS STATION/POSITION TIME TEMP WIND PRES WAVE SWELL AIR SEA DIR/SP/G HT/PER HT/PER (UTC) (F) (DEG/KT/KT) (MB) (FT/S) (FT/S) CHESAPEAKE LIGHT NOT AVBL 64 E VA BEACH 1950 49 59 340/ 10/ 12 1016.2 5/ 9 5/ 9 DUCK 2000 47 45 50/ 6/ 7 1016.0 2 E DUCK 2000 46 N/A 4/ 8 OREGON INLET 2000 48 49 20/ 5/ 6 1016.6 13E OREGON INLT NOT AVBL HATTERAS CG 2000 51 54 10/ 5/ 7 1016.9 DIAMOND BUOY 1950 53 77 360/ 12/ 14 1016.8 7/10 7/10 CAPE LOOKOUT 2000 55 60/ 6/ 8 1016.5 BEAUFORT LAB 2000 56 50 80/ 7/ 9 1015.7 30 SE NEW RVR IN 2008 56 62 70/ 8/ 10 1016.9 30 SE NEW RVR IN 1943 62 N/A 3/11 2/11 27 SE WRIGHTSVLE 2008 59 71 60/ 6/ 14 1016.4 5 SE WRIGHTSVLE NOT AVBL 225 S CAPE HAT 1950 67 72 350/ 8/ 10 1015.2 8/10 8/10 41 SE CHARLESTON 1950 68 72 60/ 14/ 16 1014.6 4/ 7 2/ 7 $$

USA.gov is the U.S. government's official web portal to all federal, state and local government web resources and services.